Race Coverage Navigation

TS # 41 / Oxford, OH  2019

 


TS STATS
TS Distance 49.9 
Total Distance 2418 
Miles To Go 622.48 
TS Climbing 2398 
Total Climbing
TS  Elevation
TS  Net Elevation 3823 
Map Filename Open Map 
Directions Filename  
Latitude 39.51 
Longitude -84.75 
Google Map  TimeStation Map 


TS Arrival Data
Arr Ord  #/Name Arrival DT TS Dst Avg This TS Avg Overall Ascending
 1 161 - Seana Hogan  06/21/2019 21:31 49.9  5.89  9.85 
 2 424 - Team i RON man Veterans supporting Veterans  06/21/2019 13:35 49.9  10.81  10.2 
 3 399 - Valerio Zamboni  06/21/2019 10:09 49.9  7.11  10.35 
 4 604 - Chieko Ozawa  06/21/2019 6:14 49.9  5.11  10.5 
 5 618 - GREGORY ROBINSON  06/21/2019 4:51 49.9  6.25  10.58 
 6 610 - Kabir Rachure  06/21/2019 3:03 49.9  6.9  10.67 
 7 568 - Alexandra Meixner  06/20/2019 22:53 49.9  14.75  10.85 
 8 529 - Isa Pulver  06/20/2019 19:27 49.9  12.37  11.02 
 9 559 - Team Martin RAAM 2019 (Martin Bergmeister)  06/20/2019 18:00 49.9  16.45  11.11 
 10 411 - Geoff Brunner  06/20/2019 17:39 49.9  13.86  11.14 
 11 442 - Joe Barr  06/20/2019 16:49 49.9  14.9  11.18 
 12 510 - John C. Tarlton  06/20/2019 14:23 49.9  15.12  11.3 
 13 603 - Alan Bradley  06/20/2019 12:21 49.9  11.43  11.41 
 14 615 - Philipp Amhof  06/20/2019 9:56 49.9  15.93  11.53 
 15 611 - Marcelo Soares " MIXIRICA "  06/20/2019 8:46 49.9  17.21  11.6 
 16 612 - Markus K. Brandl  06/20/2019 7:51 49.9  13.13  11.65 
 17 623 - Ultra Paka Racing Team (Daniel Polman)  06/20/2019 6:37 49.9  5.15  11.71 
 18 622 - Thomas Odom-Team Kyle Pease Foundation  06/20/2019 5:27 49.9  9.42  11.78 
 19 416 - Leah Goldstein  06/20/2019 2:28 49.9  6.98  11.95 
 20 367 - Daniela Genovesi  06/19/2019 22:01 49.9  10.81  12.22 
 21 329 - Peter Oyler  06/19/2019 20:45 49.9  11.43  12.33 
 22 617 - SOLO.kiwi (Craig Harper)  06/19/2019 18:48 49.9  11.83  12.43 
 23 609 - Jakob Olsen  06/19/2019 3:13 49.9  13.19  13.52 
 24 T210 - Bike Wine Team  06/22/2019 21:40 49.9  16.45  13.86 
 25 279 - Marko Baloh  06/18/2019 22:58 49.9  12.63  13.87 
 26 T207 - Team Life Time  06/22/2019 18:33 49.9  14.46  14.1 
 27 T409 - Serpentine Golden Girls  06/22/2019 12:18 49.9  13.37  14.66 
 28 T403 - EKJ Denmark  06/22/2019 0:49 49.9  15.68  15.74 
 29 T417 - Team4RAAM 2019 powered by TGW Living Logistics  06/21/2019 23:21 49.9  16.18  15.92 
 30 377 - Christoph Strasser  06/18/2019 0:02 49.9  14.46  15.97 
 31 T801 - Mind Over Matter  06/21/2019 21:06 49.9  15.68  16.16 
 32 T200 - AIR RELAX GoPro TEAM BRASIL  06/21/2019 20:35 49.9  19.96  16.16 
 33 T806 - Team SuperMarrow  06/21/2019 20:38 49.9  16.73  16.22 
 34 T402 - EA/WFP RAAM Team  06/21/2019 17:50 49.9  16.54  16.49 
 35 T204 - Lucan CRC  06/21/2019 16:58 49.9  16.92  16.57 
 36 T206 - Project Linear Acceleration  06/21/2019 16:46 49.9  15.84  16.6 
 37 T413 - TEAM BRASIL - SKIPPER  06/21/2019 16:41 49.9  17.21  16.64 
 38 T415 - TEAM FIRE VELO 935  06/21/2019 13:45 49.9  16.82  16.99 
 39 T202 - Integra Medical - BAA Racing  06/21/2019 13:04 49.9  13.67  17.02 
 40 T405 - High Rollers  06/21/2019 12:39 49.9  15.93  17.1 
 41 T412 - Team Aspect  06/21/2019 11:52 49.9  20.37  17.21 
 42 T414 - Brazil Nuts  06/21/2019 11:17 49.9  22.34  17.29 
 43 T803 - Team EndoPark  06/21/2019 11:13 49.9  15.93  17.31 
 44 T410 - Soap-Aid  06/21/2019 8:10 49.9  25.16  17.67 
 45 T418 - The Opportunists  06/21/2019 2:07 49.9  18.15  18.51 
 46 T406 - Operation Walk Midwest  06/21/2019 0:24 49.9  17.93  18.72 
 47 T808 - Antonia's Friends 2019  06/20/2019 22:55 49.9  19.19  18.99 
 48 T400 - Cantastic4  06/20/2019 21:59 49.9  20.79  19.07 
 49 T408 - Radeln-fuer-Kinder (Cycling-for-Kids)  06/20/2019 20:23 49.9  18.26  19.33 
 50 T416 - Team Rotary Raams Polio  06/20/2019 18:58 49.9  20.37  19.57 
 51 T804 - Team FSHD Skyland Trail  06/20/2019 18:48 49.9  22.51  19.62 
 52 T802 - Scorchers  06/20/2019 16:25 49.9  22.18  20 
 53 T201 - EAT WELL  06/20/2019 15:38 49.9  22.18  20.05 
 54 T407 - Julian Becker   06/20/2019 14:57 49.9  20.79  20.21 
 55 T807 - Team ZOE International  06/20/2019 14:41 49.9  22.01  20.31 
 56 T805 - Team Oceanside  06/20/2019 13:45 49.9  24.54  20.46 
 57 T401 - Data Techniques powered by Networks Centre  06/20/2019 9:49 49.9  19.96  21.09 
 58 T404 - Gentlemen of speed  06/20/2019 8:40 49.9  21.39  21.32 
 59 T800 - Backstedt Racing Project 14  06/20/2019 2:29 49.9  22.51  22.6 
 60 T411 - team alpha - tischlerei groemmer  06/20/2019 2:04 49.9  21.08  22.66